Alcoa, TN

10:39 AM EDT on August 30, 2016 (GMT -0400)
McGhee Tyson

Weather History for KTYS - July, 2013

Change the Weather History Date:

Wednesday, July 17, 2013

  Actual Average Record
Temperature  
Mean Temperature 82 °F 79 °F  
Max Temperature 93 °F 88 °F 101 °F (1980)
Min Temperature 70 °F 69 °F 57 °F (2014)
Degree Days  
Heating Degree Days 0 0  
Month to date heating degree days 0 0  
Since 1 June heating degree days 0 4  
Since 1 July heating degree days 0 0  
Cooling Degree Days 17 14  
Month to date cooling degree days 193 228  
Year to date cooling degree days 669 695  
Since 1 June cooling degree days 513 533  
Growing Degree Days 32 (Base 50)    
Moisture  
Dew Point 70 °F    
Average Humidity 69    
Maximum Humidity 93    
Minimum Humidity 44    
Precipitation  
Precipitation 0.04 in 0.18 in 2.59 in (1929)
Month to date precipitation 5.99 2.85  
Year to date precipitation 46.79 28.10  
Snow  
Snow 0.00 in 0.00 in - ()
Month to date snowfall 0.0 0.0  
Since 1 June snowfall 0.0 0.0  
Since 1 July snowfall 0.0 0.0  
Snow Depth 0.00 in    
Sea Level Pressure  
Sea Level Pressure 30.23 in    
Wind  
Wind Speed 4 mph (NE)    
Max Wind Speed 20 mph    
Max Gust Speed 26 mph    
Visibility 10 miles    
Events Rain , Thunderstorm    
T = Trace of Precipitation, MM = Missing Value Source: NWS Daily Summary

Daily Weather History Graph

Daily Weather History Graph

Search for Another Location

Airport or City:

Trip Planner

Search our weather history database for the weather conditions in past years. The results will help you decide how hot, cold, wet, or windy it might be!

Date:

Astronomy

Jul. 17, 2013 Rise Set
Actual Time 6:32 AM EDT 8:51 PM EDT
Civil Twilight 6:03 AM EDT 9:20 PM EDT
Nautical Twilight 5:27 AM EDT 9:56 PM EDT
Astronomical Twilight 4:48 AM EDT 10:35 PM EDT
Moon 3:41 PM EDT (7/17) 1:35 AM EDT (7/17)
Length of Visible Light 15h 16m
Length of Day
14h 18m
Waxing Gibbous, 67% of the Moon is Illuminated
Jul 17
Waxing Gibbous
Jul 22
Full
Jul 29
Last Quarter
Aug 6
New
Aug 14
First Quarter

Hourly Weather History & Observations

Time (EDT) Temp. Heat Index Dew Point Humidity Pressure Visibility Wind Dir Wind Speed Gust Speed Precip Events Conditions
12:53 AM 77.0 °F - 70.0 °F 79% 30.25 in 10.0 mi Calm Calm - N/A   Mostly Cloudy
1:53 AM 75.9 °F - 70.0 °F 82% 30.25 in 10.0 mi Calm Calm - N/A   Mostly Cloudy
2:53 AM 73.9 °F - 70.0 °F 87% 30.25 in 10.0 mi Calm Calm - N/A   Mostly Cloudy
3:53 AM 75.0 °F - 70.0 °F 84% 30.24 in 10.0 mi Calm Calm - N/A   Mostly Cloudy
4:53 AM 73.0 °F - 70.0 °F 90% 30.25 in 10.0 mi Calm Calm - N/A   Scattered Clouds
5:53 AM 72.0 °F - 69.1 °F 91% 30.25 in 10.0 mi Calm Calm - N/A   Scattered Clouds
6:53 AM 71.1 °F - 69.1 °F 93% 30.27 in 10.0 mi Calm Calm - N/A   Scattered Clouds
7:53 AM 73.9 °F - 70.0 °F 87% 30.28 in 10.0 mi Calm Calm - N/A   Scattered Clouds
8:53 AM 77.0 °F - 72.0 °F 84% 30.29 in 10.0 mi Calm Calm - N/A   Scattered Clouds
9:53 AM 80.1 °F 83.8 °F 72.0 °F 76% 30.28 in 10.0 mi Calm Calm - N/A   Partly Cloudy
10:53 AM 84.9 °F 90.7 °F 72.0 °F 65% 30.27 in 10.0 mi NNE 5.8 mph - N/A   Partly Cloudy
11:53 AM 87.1 °F 93.6 °F 72.0 °F 61% 30.27 in 10.0 mi North 4.6 mph - N/A   Scattered Clouds
12:53 PM 88.0 °F 92.9 °F 70.0 °F 55% 30.25 in 10.0 mi ENE 6.9 mph - N/A   Scattered Clouds
1:53 PM 89.1 °F 93.7 °F 69.1 °F 52% 30.24 in 10.0 mi North 8.1 mph - N/A   Scattered Clouds
2:53 PM 90.0 °F 95.4 °F 70.0 °F 52% 30.20 in 10.0 mi NNW 3.5 mph 17.3 mph N/A   Scattered Clouds
3:53 PM 91.9 °F 94.5 °F 66.0 °F 42% 30.17 in 10.0 mi NE 3.5 mph - N/A   Mostly Cloudy
4:53 PM 91.0 °F 95.2 °F 68.0 °F 47% 30.16 in 10.0 mi ENE 6.9 mph - N/A   Mostly Cloudy
5:53 PM 89.1 °F 93.7 °F 69.1 °F 52% 30.15 in 10.0 mi NE 6.9 mph - N/A   Mostly Cloudy
6:53 PM 87.1 °F 92.0 °F 70.0 °F 57% 30.15 in 10.0 mi ENE 8.1 mph - N/A   Overcast
7:53 PM 82.9 °F 86.5 °F 69.1 °F 63% 30.19 in 10.0 mi NE 10.4 mph - N/A   Overcast
8:06 PM 82.4 °F 86.3 °F 69.8 °F 66% 30.23 in 10.0 mi NNE 15.0 mph - 0.00 in Rain , Thunderstorm Light Thunderstorms and Rain
8:32 PM 78.8 °F - 69.8 °F 74% 30.24 in 10.0 mi ENE 15.0 mph - 0.00 in Rain , Thunderstorm Light Thunderstorms and Rain
8:53 PM 75.9 °F - 68.0 °F 76% 30.21 in 10.0 mi East 12.7 mph 21.9 mph 0.00 in Rain , Thunderstorm Light Thunderstorms and Rain
9:09 PM 73.4 °F - 66.2 °F 78% 30.24 in 10.0 mi ENE 5.8 mph - 0.00 in Rain Light Rain
9:53 PM 73.9 °F - 66.9 °F 79% 30.17 in 10.0 mi Calm Calm - 0.04 in Rain Light Rain
10:53 PM 72.0 °F - 69.1 °F 91% 30.21 in 10.0 mi North 10.4 mph - 0.00 in   Overcast
11:53 PM 72.0 °F - 69.1 °F 91% 30.23 in 10.0 mi Calm Calm - 0.00 in   Overcast